Regional Weather Roundup
Issued by NWS Wakefield, VA

Home | Current Version | Previous Version | Text Only | Print | Product List | Glossary Off
Versions: 1 2 3 4 5 6 7 8 9 10 11 12 13 14 15 16 17 18 19 20 21 22 23 24 25 26 27 28 29 30 31 32 33 34 35 36 37 38 39 40 41 42 43 44 45 46 47 48 49 50

000
ASUS41 KAKQ 301310
RWRAKQ

REGIONAL WEATHER ROUNDUP
NATIONAL WEATHER SERVICE WAKEFIELD VA
800 AM EST FRI JAN 30 2015

Note: "fair" indicates few or no clouds below 12,000 feet with no
significant weather and/or obstructions to visibility. * = Denotes
station may not report precipitation (e.g., rain,snow,etc.),
thunder or fog.

VAZ042-051-052>054-056-301400-
NORTHERN VIRGINIA

CITY           SKY/WX    TMP DP  RH WIND       PRES   REMARKS
WASH NATIONAL  MOCLDY    40  22  48 NW13G22   30.00R
DULLES         MOCLDY    35  22  58 NW10      30.00R
FORT BELVOIR   CLOUDY    38  22  52 NW9       30.01R
QUANTICO       PTCLDY    39  22  50 N8G20     30.03R
FREDERICKSBRG* PTCLDY    40  27  57 NW6G16    30.00R
STAFFORD*      CLEAR     37  24  58 NW13      30.05R
WARRENTON      MOCLDY    39  29  68 NW12      30.00R
CULPEPER*      CLOUDY    39  25  56 N6        30.01R
MANASSAS*      MOCLDY   N/A N/A N/A NW9G18    30.01R
LEESBURG*      CLOUDY    36  28  75 NW7       30.00S
WINCHESTER     CLOUDY    36  23  60 NW14      29.99S
FRONT ROYAL*   CLOUDY    36  23  60 NW3       29.99S
LURAY*         CLOUDY    37  27  65 CALM      29.99S
$$

VAZ048-049-060>072-079>083-301400-
CENTRAL AND SOUTH CENTRAL VIRGINIA

CITY           SKY/WX    TMP DP  RH WIND       PRES   REMARKS
RICHMOND       MOCLDY    41  27  57 NW6       29.98R
CHESTERFIELD*  CLOUDY    39  19  45 NW13      29.99R
PETERSBURG*    PTCLDY    33  29  84 CALM      29.99R
HANOVER        PTCLDY    39  25  57 NW10      30.00R
TAPPAHANNOCK*  CLOUDY    41  24  51 NW8G17    29.98R
QUINTON*       CLOUDY    40  27  58 NW5       29.97R
CHARLOTTSVILLE CLOUDY    39  23  52 NW7G17    30.00R
GORDONSVILLE*  CLOUDY    39  25  56 NW3       30.00R
ORANGE*        CLOUDY    39  27  60 W6        30.02R
LOUISA*        CLOUDY    41  25  52 NW10      29.98R
BUMPASS*       CLOUDY    39  26  60 NW3       29.99R
FARMVILLE*     MOCLDY    42  23  47 CALM      30.01R
CREWE*         CLOUDY    42  24  49 NW14G21   29.99R
FORT PICKETT*  CLOUDY    41  27  56 NW13      29.99R
CHASE CITY*    FAIR      41  27  57 NW5       30.02R
CLARKSVILLE*   FAIR      39  23  52 NW10G24   30.02R
SOUTH HILL*    CLEAR     39  26  58 NW8       30.05R
LAWRENCEVILLE* FAIR      39  28  64 NW5       29.98R
EMPORIA*       MOCLDY    39  30  70 W3        30.00R
$$

VAZ088>098-301400-
SOUTHEAST VIRGINIA

CITY           SKY/WX    TMP DP  RH WIND       PRES   REMARKS
NORFOLK        CLOUDY    39  32  76 CALM      29.97R
VIRGINIA BEACH LGT RAIN  40  34  79 W6        29.97R
NORFOLK NAVAL  CLOUDY    42  34  73 SW3       29.99R
WEST POINT*    CLOUDY    42  26  54 N3        29.99R
SALUDA*        CLOUDY    38  31  77 NW3       29.96R
NEWPORT NEWS   CLOUDY    40  35  83 S5        29.98R
LANGLEY AFB    CLOUDY    38  35  90 SW2       29.97R
FORT EUSTIS    CLOUDY    39  33  77 NW1       29.96R
WILLIAMSBURG*    N/A     43  30  61 NW3       29.98R
HR EXEC AP*    CLOUDY    37  34  87 CALM      30.00R
FRANKLIN*      CLOUDY    40  30  67 NW5       29.99R
WAKEFIELD      CLOUDY    42  27  55 CALM      29.99R
$$

VAZ020-022-025-037-045-301400-
WEST CENTRAL AND SOUTHWEST VIRGINIA

CITY           SKY/WX    TMP DP  RH WIND       PRES   REMARKS
STAUNTON*      CLOUDY    36  23  59 W6        30.01S
WAYNESBORO*    CLOUDY    34  22  62 NW7       29.99R
HOT SPRINGS VA LGT SNOW  22  18  82 NW22G38   29.88R WCI   7
LYNCHBURG      MOCLDY    37  18  46 W9G18     30.05R
DANVILLE       CLOUDY    41  22  46 NW12G22   30.06R
SOUTH BOSTON*  PTSUNNY   41  20  43 NW13G28   30.05R
MARTINSVILLE   CLOUDY    39  23  52 NW15G22   30.10S
ROANOKE        CLOUDY    36  20  52 W20G28    30.08R
BLACKSBURG     CLOUDY    31  19  63 W17G29    30.08S WCI  19
DUBLIN*        CLOUDY    32  24  70 NW13G28   30.09S WCI  23
MARION*        FLURRIES  30  22  72 W23G38    30.11R WCI  17
HILLSVILLE*    CLOUDY    28  19  67 NW24G35   30.05S WCI  14
RICHLANDS*     LGT SNOW  26  22  84 NW13G24   30.14S WCI  15
WISE*          FLURRIES  28  27  93 NW10G20   30.19R WCI  19
ABINGDON*      CLOUDY    32  23  68 NW10      30.18S WCI  24
$$

MDZ021>025-VAZ099-100-301400-
SOUTHERN MARYLAND AND THE DELMARVA PENINSULA

CITY           SKY/WX    TMP DP  RH WIND       PRES   REMARKS
PATUXENT RIVER PTCLDY    39  27  62 NW21      29.95R
BAY BRIDGE APT   N/A     36  28  75 NW15      29.98R
LEONARDTOWN    PTCLDY    37  25  60 NW13G20   29.98R
DOVER          CLOUDY    37  29  73 W16G22    29.93R
GEORGETOWN     CLOUDY    39  26  59 NW8G17    29.93R
EASTON         CLOUDY    39  30  70 NW15G23   29.99R
CAMBRIDGE      MOCLDY    41  28  60 NW13G23   29.94S
SALISBURY      CLOUDY    41  29  62 NW13      29.92S
OCEAN CITY     CLOUDY    37  30  75 NW6       29.93R
WALLOPS ISLAND CLOUDY    37  32  82 NW8       29.94R
ACCOMACK*      CLOUDY    36  32  87 W5        29.94R
$$

NCZ012>017-030>032-301400-
NORTH CENTRAL AND EASTERN NORTH CAROLINA

CITY           SKY/WX    TMP DP  RH WIND       PRES   REMARKS
ROANOKE RAPIDS FAIR      41  30  65 NW7       30.00R
RALEIGH        PTCLDY    42  25  50 VRB7      30.04R
ELIZABETH CITY LGT RAIN  41  37  86 NW10      29.97R
AHOSKIE*       CLOUDY    38  35  90 CALM      30.00R
EDENTON*       LGT RAIN  41  37  86 NW12      29.98R
CURRITUCK*     RAIN      41  36  83 NW6       29.98R
KILL DEVIL HLS LGT RAIN  42  39  89 W12       29.94R
MANTEO         DRIZZLE   43  37  81 NW13G20   29.96R
CAPE HATTERAS  CLOUDY    48  41  76 NW10G21   29.94S
TARBORO*       CLOUDY    42  33  68 W8        30.02R
GOLDSBORO      CLOUDY    44  42  95 NW5       30.00R
WASHINGTON     CLOUDY    43  37  80 NW9G17    30.00R
GREENVILLE     LGT RAIN  43  36  75 N5        30.02R
NEW BERN       LGT RAIN  48  39  71 NW12      29.99R
WILMINGTON     CLOUDY    49  41  74 NW15      29.98R
$$

VAZ048-301400-
ELSEWHERE

CITY           SKY/WX    TMP DP  RH WIND       PRES   REMARKS
HARRISBURG PA  CLOUDY    33  25  72 NW16      29.93S WCI  23
BALTIMORE      PTCLDY    35  24  64 W10       29.97R
ANNAPOLIS      PTCLDY    38  25  59 NW9       29.98R
ANDREWS AFB    PTCLDY    37  23  57 NW18      29.97R
PHILADELPHIA   MOCLDY    35  25  66 NW12      29.92R
HENDERSON NC   PTCLDY    40  23  51 NW12G17   30.02R
GREENSBORO     MOCLDY    39  21  48 NW20G29   30.06R
ROCKY MOUNT    MOCLDY    41  30  65 NW6       30.02R
$$

VAZ100-301400-
MARINE

STATION/POSITION TIME  TEMP    WIND        PRES    WAVE   SWELL
                       AIR SEA DIR/SP/G            HT/PER HT/PER
                 (UTC) (F)     (DEG/KT/KT) (MB)    (FT/S) (FT/S)
BRANDYWINE LGT   1300   37 36  330/ 15/ 19 1013.0R
CAPE MAY NJ      1300   36 37              1012.5R
LEWES DE         1300   38 36  320/ 14/ 17 1013.0R
15NM E FENWICK I 1300   38 40              1012.6R   4/ 6
OCEAN-CITY-INLET 1300   38 38  330/  8/ 10 1012.7R
WACHAPREAGUE VA  1300   36 36   CALM  /  2 1013.7F
THOMAS POINT MD  1300   38 35  320/ 14/ 16 1016.0R
GOOSES REEF MD   1300   38 36  VRB 16/ 21  1013.7R   2/ 2
COVE POINT MD    1300   39     340/ 22/ 24 1014.1R
SOLOMONS ISLAND  1300      37                N/A
BISHOPS HEAD MD  1300   39 34  330/ 11/ 13 1013.3R
PINEY POINT MD   1300          350/ 20/ 21   N/A
POTOMAC MD       1300   40 37  340/ 14/ 19 1013.2R   1
CAMBRIDGE MD     1300   39 35  310/ 18/ 26 1014.0R
LEWISETTA VA     1300   40 36  330/ 14/ 18 1014.3R
RAPPAHANNOCK LGT 1300          320/  6/  6 1014.6R
STINGRAY PT      1300   40 38  340/ 12/ 17 1014.8R   1
YORK RVR RNG VA  1300   39     300/  3/  3 1013.6R
YORKTOWN VA      1300   40 40  280/  2/  4 1014.0R
JAMESTOWN VA     1300   42 40  310/  4/  6   N/A     1
DOMINION TERM VA 1300   40     290/  3/  4 1014.7R
KIPTOPEKE VA     1300      44   70/  1/  2   N/A
CHES BAY BRIDGE  1300   40 40  250/  3/  4 1014.1S
CAPE HENRY VA    1300   39     290/  7/  9 1013.3R
CHESAPEAKE LGHT  1200   41     320/ 19/ 20 1014.6R
WILLOUBY STN VA  1300   40     270/  3/  3 1015.1R
S CRANEY ISL VA  1300          240/  2/  3 1014.8R
CAPE HENRY BUOY  1200      41                N/A     3/10
1ST LANDING BUOY 1300   40 40  270/  4/  6 1014.2R   1/ 3
CAPE CHARLES BUO 1200      41                N/A     2/11   2/11
OFFSHORE WE BUOY 1300      43                N/A     3/ 3   2/10
64NM E OF VA BCH 1300   43 49  320/ 19/ 23 1013.1R   4/ 4   2/11
DUCK PIER NC     1300   42 44  290/ 13/ 17 1013.5R
44100 DUCK FRF   1300      44                N/A     2/11   2/11
44056 DUCK FRF   1300      43                N/A     2/10
OREGON INLET NC  1300   45 43  290/  9/ 13 1014.0R
HATTERAS NC      1300   49 45  290/ 16/ 21 1014.0R


USA.gov is the U.S. government's official web portal to all federal, state and local government web resources and services.